SQ3VAS-10 Weather Reports


time (UTC)temp
F
wind
direction
speed
knots
gust
knots
rain 1hr
in
rain 24hr
in
rain mn
in
humidity
%
barometer
mb
20260504191426 65 0.0 0.0 0.00 0.00 0.00 64 1012.9
20260504190454 65 0.0 0.0 0.00 0.00 0.00 62 1012.8
20260504185522 66 0.0 0.0 0.00 0.00 0.00 61 1012.7
20260504183620 67 0.0 0.0 0.00 0.00 0.00 60 1012.4
20260504182648 68 0.0 0.0 0.00 0.00 0.00 58 1012.4
20260504181716 69 0.0 0.0 0.00 0.00 0.00 57 1012.2
20260504180745 70 0.0 0.0 0.00 0.00 0.00 55 1012.1
20260504175813 71 0.0 0.0 0.00 0.00 0.00 53 1012.0
20260504174841 71 0.0 0.0 0.00 0.00 0.00 52 1011.8
20260504173908 72 0.0 0.0 0.00 0.00 0.00 52 1011.7
20260504172936 73 0.0 0.0 0.00 0.00 0.00 49 1011.6
20260504172004 74 0.0 0.0 0.00 0.00 0.00 46 1011.3
20260504171030 74 0.0 0.0 0.00 0.00 0.00 46 1011.5
20260504160341 73 0.0 0.0 0.00 0.00 0.00 46 1011.6
20260504150627 78 0.0 0.0 0.00 0.00 0.00 39 1011.5
20260504140908 77 0.0 0.0 0.00 0.00 0.00 41 1011.6
20260504130219 77 0.0 0.0 0.00 0.00 0.00 43 1011.7
20260504081548 69 0.0 0.0 0.00 0.00 0.00 58 1012.1
20260504080616 69 0.0 0.0 0.00 0.00 0.00 57 1012.1
20260504060206 65 0.0 0.0 0.00 0.00 0.00 62 1011.5
20260504050451 65 0.0 0.0 0.00 0.00 0.00 55 1011.3
20260504045517 65 0.0 0.0 0.00 0.00 0.00 55 1011.2
20260504044544 64 0.0 0.0 0.00 0.00 0.00 56 1011.2
20260504043612 64 0.0 0.0 0.00 0.00 0.00 56 1011.2
20260504042639 64 0.0 0.0 0.00 0.00 0.00 60 1011.0
20260504041706 64 0.0 0.0 0.00 0.00 0.00 56 1011.0
20260504040734 63 0.0 0.0 0.00 0.00 0.00 58 1011.1
20260504035800 63 0.0 0.0 0.00 0.00 0.00 58 1011.1
20260504034827 63 0.0 0.0 0.00 0.00 0.00 62 1011.1
20260504033856 62 0.0 0.0 0.00 0.00 0.00 62 1011.1
20260504032919 62 0.0 0.0 0.00 0.00 0.00 63 1011.0
20260504031946 62 0.0 0.0 0.00 0.00 0.00 62 1010.9
20260504031013 62 0.0 0.0 0.00 0.00 0.00 59 1010.7
20260504025106 62 0.0 0.0 0.00 0.00 0.00 56 1010.7
20260504024133 62 0.0 0.0 0.00 0.00 0.00 61 1010.6
20260504023201 62 0.0 0.0 0.00 0.00 0.00 63 1010.6
20260504022229 61 0.0 0.0 0.00 0.00 0.00 61 1010.5
20260504021257 61 0.0 0.0 0.00 0.00 0.00 62 1010.5
20260504020325 62 0.0 0.0 0.00 0.00 0.00 64 1010.5
20260504015353 62 0.0 0.0 0.00 0.00 0.00 63 1010.4
20260504014422 63 0.0 0.0 0.00 0.00 0.00 61 1010.4
20260504013452 63 0.0 0.0 0.00 0.00 0.00 61 1010.3
20260504012517 64 0.0 0.0 0.00 0.00 0.00 58 1010.3
20260504011545 64 0.0 0.0 0.00 0.00 0.00 55 1010.3
20260504010612 64 0.0 0.0 0.00 0.00 0.00 54 1010.3
20260504005639 63 0.0 0.0 0.00 0.00 0.00 57 1010.3
20260504004707 64 0.0 0.0 0.00 0.00 0.00 55 1010.2
20260504003733 63 0.0 0.0 0.00 0.00 0.00 56 1010.3
20260504002800 62 0.0 0.0 0.00 0.00 0.00 58 1010.4
20260504001828 61 0.0 0.0 0.00 0.00 0.00 60 1010.5
20260504000855 62 0.0 0.0 0.00 0.00 0.00 58 1010.4
20260503235923 61 0.0 0.0 0.00 0.00 0.00 63 1010.4
20260503234950 61 0.0 0.0 0.00 0.00 0.00 62 1010.3
20260503234018 61 0.0 0.0 0.00 0.00 0.00 62 1010.2
20260503233046 62 0.0 0.0 0.00 0.00 0.00 60 1010.2
20260503232114 61 0.0 0.0 0.00 0.00 0.00 62 1010.2
20260503231141 61 0.0 0.0 0.00 0.00 0.00 63 1010.1
20260503230210 60 0.0 0.0 0.00 0.00 0.00 64 1010.0
20260503225236 60 0.0 0.0 0.00 0.00 0.00 64 1010.0
20260503224305 61 0.0 0.0 0.00 0.00 0.00 64 1010.0
20260503223333 61 0.0 0.0 0.00 0.00 0.00 63 1010.0
20260503222402 62 0.0 0.0 0.00 0.00 0.00 61 1010.0
20260503221428 62 0.0 0.0 0.00 0.00 0.00 60 1010.1
20260503220456 63 0.0 0.0 0.00 0.00 0.00 59 1010.0
20260503215524 62 0.0 0.0 0.00 0.00 0.00 60 1010.2
20260503214552 63 0.0 0.0 0.00 0.00 0.00 58 1010.2
20260503213619 63 0.0 0.0 0.00 0.00 0.00 58 1010.4
20260503212647 64 0.0 0.0 0.00 0.00 0.00 58 1010.2
20260503211715 64 0.0 0.0 0.00 0.00 0.00 56 1010.1
20260503210742 64 0.0 0.0 0.00 0.00 0.00 57 1010.2
20260503205811 65 0.0 0.0 0.00 0.00 0.00 56 1010.1
20260503204839 65 0.0 0.0 0.00 0.00 0.00 55 1010.3
20260503203907 66 0.0 0.0 0.00 0.00 0.00 53 1010.1
20260503202934 67 0.0 0.0 0.00 0.00 0.00 53 1010.0
20260503202002 67 0.0 0.0 0.00 0.00 0.00 52 1010.1
20260503201031 68 0.0 0.0 0.00 0.00 0.00 51 1010.1
20260503200058 68 0.0 0.0 0.00 0.00 0.00 49 1010.3
20260503195126 69 0.0 0.0 0.00 0.00 0.00 49 1010.2
20260503194155 69 0.0 0.0 0.00 0.00 0.00 49 1010.3
20260503193223 71 0.0 0.0 0.00 0.00 0.00 44 1010.2